Voltar ao catálogo

HISPASAT 30W-5

AtivoComunicaçõesGEO
NORAD 37264·PAYLOAD·🇪🇸 Spain

Lançado Dec 29, 2010 de Guiana Space Centre

Loading…

TLE

AtualizadoSource: Space-Track

Época: Sep 14, 2026, 10:14 UTC

1 37264U 10070A   26257.42666450 -.00000224  00000-0  00000-0 0  9994
2 37264   0.0418 111.9058 0005583  56.0757 309.0351  1.00271453 54084

Acompanhe HISPASAT 30W-5 em tempo real com AllMySat

Download on the App Store